Miscellaneous Local Product
Issued by NWS North Platte, NE

Home | Current Version | Previous Version | Text Only | Print | Product List | Glossary On
Versions: 1 2 3 4 5 6 7 8 9 10 11 12 13 14 15 16 17 18 19 20 21 22 23 24 25 26 27 28 29 30 31 32 33 34 35 36 37 38 39 40 41 42 43 44 45 46 47 48 49 50
000
AXUS43 KLBF 252110
MISLBF


WESTERN AND NORTH CENTRAL NEBRASKA HOURLY WEATHER ROUNDUP
NATIONAL WEATHER SERVICE NORTH PLATTE NE
300 PM CST THU DEC 25 2014

***STATIONS NOT REPORTING VARIABLES SUCH AS SKY/WEATHER OR
PRESSURE ARE PROVIDED BY THE NEBRASKA DEPARTMENT OF
ROADS...RAWS...AND APRS NETWORKS...AND ARE NOT UNDER
NATIONAL WEATHER SERVICE QUALITY CONTROL***

...OBSERVATIONS IN AND NEAR THE EASTERN PANHANDLE OF NEBRASKA...

CITY           SKY/WX    TMP DP  RH WIND       PRES   REMARKS
PINE RIDGE     LGT SNOW  29  25  85 N13       29.70R FOG     WCI  19
CHADRON        CLOUDY    29  26  89 N20       29.71R FOG     WCI  16
ALLIANCE       SNOW      28  26  92 N20G32    29.60R VSB 1/2 WCI  15
SIDNEY         LGT SNOW  28  25  88 N20       29.55R FOG     WCI  15
WHITECLAY        N/A     27  24  86 NE14        N/A  WCI  16
CRESCENT LAKE    N/A     28  26  91 N17G26      N/A  WCI  16
LISCO            N/A     32  27  80 NW28        N/A  WCI  18
BIG SPRINGS      N/A     36  30  78 N12         N/A  WCI  28
$$

...OBSERVATIONS IN NORTH CENTRAL NEBRASKA...

CITY           SKY/WX    TMP DP  RH WIND       PRES   REMARKS
VALENTINE      LGT SNOW  30  27  88 N17G28    29.65R FOG     WCI  18
THEDFORD       CLOUDY    32  31  94 NE23G32   29.57R WCI  19
AINSWORTH      FOG       30  30  99 N26       29.60R VSB 3/4 WCI  16
O`NEILL        CLOUDY    32  31  94 N16G22    29.60R WCI  21
ORD            SUNNY     42  25  50 NE12      29.53R
BROKEN BOW     FAIR      38  29  70 N17       29.52R WCI  28
BROWNLEE         N/A     30  30 100 N28         N/A  WCI  16
SPRINGVIEW       N/A     31  29  91 NE5G13      N/A  WCI  26
BREWSTER         N/A     33  29  82 N18         N/A  WCI  22
ROSE             N/A     33  32  96 N17         N/A  WCI  22
SARGENT          N/A     35  29  79 N6G17       N/A  WCI  30
COMSTOCK         N/A     42  25  52 NE9         N/A
CHAMBERS         N/A     36  27  71 N8G15       N/A  WCI  30
EWING            N/A     34  29  80 CALM        N/A
$$

...OBSERVATIONS IN SOUTHWEST NEBRASKA AND FAR NORTHEAST COLORADO...

CITY           SKY/WX    TMP DP  RH WIND       PRES   REMARKS
WRAY           FAIR      44  30  59 N16       29.50R
HOLYOKE        FAIR      41  30  65 N20G25    29.53R
IMPERIAL       SUNNY     41  27  57 N18G26    29.51R
OGALLALA       MOSUNNY   36  29  74 N21G30    29.54R WCI  25
NORTH PLATTE   PTSUNNY   37  26  64 NE21      29.52R WCI  26
MCCOOK         SUNNY     42  23  46 NE9       29.49R
LEXINGTON      SUNNY     41  26  54 E9        29.50R
PAXTON           N/A     36  30  78 N20         N/A  WCI  25
BRADY            N/A     38  28  67 NE3G12      N/A
GOTHENBURG       N/A     41  23  48 NE8         N/A
CALLAWAY         N/A     35  29  80 N17         N/A  WCI  25
$$

...NORTH PLATTE AREA...

CITY           SKY/WX    TMP DP  RH WIND       PRES   REMARKS
AIRPORT        PTSUNNY   37  26  64 NE21      29.52R WCI  26
DOWNTOWN         N/A     35  27  73 NE7G20      N/A  WCI  29
$$

...SOME WEATHER OBSERVATIONS FROM AROUND THE REGION...

CITY           SKY/WX    TMP DP  RH WIND       PRES   REMARKS
DENVER         CLOUDY    37  30  75 N13       29.52R WCI  29
LARAMIE        HVY SNOW  24  21  88 E16       29.47R VSB 1/4 WCI  11
CHEYENNE       LGT SNOW  24  20  84 NE17G24   29.53R VSB 1   WCI  11
SCOTTSBLUFF    LGT SNOW  29  26  89 NE18      29.60S VSB 3/4 WCI  16
RAPID CITY     LGT SNOW  26  23  88 N22       29.76R VSB 3/4 WCI  12
PIERRE         CLOUDY    29  25  85 N20       29.75R WCI  16
WINNER         LGT SNOW  31  28  89 N17       29.70R VSB 1   WCI  19
SIOUX FALLS    CLOUDY    34  28  79 NE20      29.65S WCI  23
OMAHA          MOSUNNY   49  31  49 S22       29.60S
GRAND ISLAND   SUNNY     44  26  49 VRB5      29.53R
KANSAS CITY    PTSUNNY   52  29  41 S28G33    29.66F
WICHITA        CLOUDY    56  27  32 S31G39    29.60S
HAYS           MOSUNNY   57  27  30 S21G26    29.47R
LIBERAL        CLOUDY    55  21  26 S17G24    29.53S
GOODLAND       SUNNY     45  23  42 N17       29.46R
$$



USA.gov is the U.S. government's official web portal to all federal, state and local government web resources and services.